Regional Weather Roundup
Issued by NWS Cleveland, OH

Home | Current Version | Previous Version | Text Only | Print | Product List | Glossary Off
Versions: 1 2 3 4 5 6 7 8 9 10 11 12 13 14 15 16 17 18 19 20 21 22 23 24 25 26 27 28 29 30 31 32 33 34 35 36 37 38 39 40 41 42 43 44 45 46 47 48 49 50

000
ASUS41 KCLE 091000
RWRCLE
OHIO REGIONAL WEATHER ROUNDUP
NATIONAL WEATHER SERVICE WILMINGTON, OH
500 AM EST TUE FEB 09 2016

NOTE: "FAIR" INDICATES FEW OR NO CLOUDS BELOW 12,000 FEET WITH NO
SIGNIFICANT WEATHER AND/OR OBSTRUCTIONS TO VISIBILITY.

OHZ001>008-015>018-024>027-034-035-043-044-091100-
   NORTHWEST OHIO

CITY           SKY/WX    TMP DP  RH WIND       PRES   REMARKS
DEFIANCE       LGT SNOW  29  24  82 W8        29.60S WCI  21
FINDLAY        CLOUDY    29  23  78 W16       29.58S WCI  17
TOLEDO EXPRESS CLOUDY    29  25  85 W15       29.56S WCI  18
TOLEDO EXEC    CLOUDY    31  25  78 W14       29.57S WCI  21
LIMA           CLOUDY    26  23  88 W15       29.60S WCI  14
$$

OHZ009>014-019>023-028>033-038-089-091100-
   NORTHEAST OHIO

CITY           SKY/WX    TMP DP  RH WIND       PRES   REMARKS
CLE-HOPKINS    CLOUDY    31  28  89 SW8       29.57S WCI  23
CLE-LAKEFRONT  CLOUDY    33  30  88 SW10      29.54S WCI  25
CUY CO. ARPT   NOT AVBL
LORAIN-ELYRIA  CLOUDY    31  27  85 W12       29.56R WCI  22
ASHTABULA      CLOUDY    32  31  96 W7        29.52S WCI  26
AKRON-CANTON   CLOUDY    30  25  81 W9        29.53S WCI  22
WOOSTER        NOT AVBL
MANSFIELD      CLOUDY    29  26  89 W8        29.55R WCI  21
YOUNGSTOWN     FLURRIES  32  30  92 W6        29.52S WCI  26
$$

OHZ042-051>053-060>062-070>072-077>081-091100-
  SOUTHWEST OHIO

CITY           SKY/WX    TMP DP  RH WIND       PRES   REMARKS
CINC-COVINGTON LGT SNOW  21  16  81 W7        29.71S WCI  12
CINC-LUNKEN    LGT SNOW  22  18  85 SW9       29.75R FOG     WCI  12
HAMILTON       LGT SNOW  22  19  89 W8        29.72S FOG     WCI  12
DAYTON         NOT AVBL
WRIGHT-PAT AFB NOT AVBL
DAYTON GENERAL LGT SNOW  21  17  84 SW9       29.66R FOG     WCI  11
WILMINGTON     LGT SNOW  20  17  88 W16       29.66R FOG     WCI   6
$$

OHZ036-037-039>041-045>050-054>059-063>069-073>076-082>088-091100-
  CENTRAL AND SOUTHEAST OHIO

CITY           SKY/WX    TMP DP  RH WIND       PRES   REMARKS
COLUMBUS       LGT SNOW  27  23  85 W10       29.61R FOG     WCI  17
OSU AIRPORT    LGT SNOW  27  23  85 W12       29.61R FOG     WCI  17
BOLTON FIELD   NOT AVBL
RICKENBACK AFB NOT AVBL
NEWARK         LGT SNOW  30  26  85 MISG      29.59R FOG
MARION         CLOUDY    28  22  78 W12       29.59S WCI  18
LANCASTER      LGT SNOW  23  19  85 SW12G20   29.63R FOG     WCI  12
ZANESVILLE     LGT SNOW  32  28  85 SW13      29.57S VSB 1   WCI  22
NEW PHILLY     LGT SNOW  31  27  85 NW9       29.56S FOG     WCI  23
$$



USA.gov is the U.S. government's official web portal to all federal, state and local government web resources and services.